Houlton, ME

7:52 AM EST on January 24, 2018 (GMT -0500)
Houlton International

Weather History for KHUL - March, 2013

Change the Weather History Date:

Tuesday, March 26, 2013

  Actual Average Record
Temperature  
Mean Temperature 30 °F 30 °F  
Max Temperature 42 °F 40 °F 63 °F (1993)
Min Temperature 17 °F 20 °F -5 °F (1960)
Degree Days  
Heating Degree Days 35 35  
Month to date heating degree days 929 1053  
Since 1 July heating degree days 7034 7626  
Cooling Degree Days 0 0  
Month to date cooling degree days 0 0  
Year to date cooling degree days 0 0  
Moisture  
Dew Point 25 °F    
Average Humidity 71    
Maximum Humidity 89    
Minimum Humidity 53    
Precipitation  
Precipitation T in 0.09 in 0.92 in (1979)
Month to date precipitation 1.52 2.17  
Year to date precipitation 3.92 7.03  
Sea Level Pressure  
Sea Level Pressure 29.59 in    
Wind  
Wind Speed 10 mph (North)    
Max Wind Speed 18 mph    
Max Gust Speed 25 mph    
Visibility 8 miles    
Events Snow    
T = Trace of Precipitation, MM = Missing Value Source: NWS Daily Summary

Daily Weather History Graph

Daily Weather History Graph

Search for Another Location

Airport or City:

Trip Planner

Search our weather history database for the weather conditions in past years. The results will help you decide how hot, cold, wet, or windy it might be!

Date:

Astronomy

Mar. 26, 2013 Rise Set
Actual Time 6:22 AM EDT 6:52 PM EDT
Civil Twilight 5:52 AM EDT 7:22 PM EDT
Nautical Twilight 5:16 AM EDT 7:57 PM EDT
Astronomical Twilight 4:39 AM EDT 8:34 PM EDT
Moon 6:25 PM EDT (3/26) 5:37 AM EDT (3/26)
Length of Visible Light 13h 30m
Length of Day
12h 29m
Waxing Gibbous, 99% of the Moon is Illuminated
Mar 26
Waxing Gibbous
Mar 27
Full
Apr 3
Last Quarter
Apr 10
New
Apr 18
First Quarter

Hourly Weather History & Observations

Time (EDT) Temp. Windchill Dew Point Humidity Pressure Visibility Wind Dir Wind Speed Gust Speed Precip Events Conditions
12:53 AM 26.1 °F 21.9 °F 19.9 °F 78% 29.63 in 10.0 mi NNE 3.5 mph - N/A   Clear
1:53 AM 24.1 °F 16.0 °F 19.0 °F 81% 29.61 in 10.0 mi North 6.9 mph - N/A   Clear
2:53 AM 23.0 °F 15.8 °F 18.0 °F 81% 29.60 in 10.0 mi North 5.8 mph - N/A   Clear
3:53 AM 21.9 °F 14.5 °F 17.1 °F 82% 29.59 in 10.0 mi NNE 5.8 mph - N/A   Clear
4:53 AM 21.0 °F 13.4 °F 16.0 °F 81% 29.57 in 10.0 mi NNE 5.8 mph - N/A   Clear
5:53 AM 21.0 °F 10.6 °F 16.0 °F 81% 29.57 in 10.0 mi NNE 9.2 mph - N/A   Clear
6:53 AM 23.0 °F 14.7 °F 18.0 °F 81% 29.58 in 10.0 mi NNE 6.9 mph - N/A   Clear
7:53 AM 24.1 °F 15.2 °F 17.1 °F 75% 29.59 in 10.0 mi North 8.1 mph - N/A   Clear
8:53 AM 30.9 °F 21.7 °F 21.9 °F 69% 29.58 in 10.0 mi North 11.5 mph - N/A   Clear
9:53 AM 34.0 °F 25.5 °F 25.0 °F 70% 29.58 in 10.0 mi North 11.5 mph - N/A   Overcast
10:53 AM 35.1 °F 24.8 °F 26.1 °F 70% 29.57 in 10.0 mi North 17.3 mph 21.9 mph 0.00 in   Overcast
11:53 AM 37.0 °F 27.0 °F 27.0 °F 67% 29.57 in 10.0 mi North 18.4 mph 23.0 mph N/A   Overcast
12:36 PM 37.4 °F 29.8 °F 28.4 °F 70% 29.54 in 8.0 mi North 11.5 mph 21.9 mph 0.00 in Snow Light Snow
12:53 PM 37.0 °F 28.5 °F 28.9 °F 73% 29.56 in 7.0 mi North 13.8 mph - 0.00 in Snow Light Snow
1:20 PM 37.4 °F 28.5 °F 30.2 °F 75% 29.54 in 9.0 mi NNW 15.0 mph - 0.00 in   Overcast
1:39 PM 39.2 °F 32.5 °F 30.2 °F 70% 29.54 in 10.0 mi NNW 10.4 mph 19.6 mph 0.00 in   Overcast
1:53 PM 39.0 °F 31.8 °F 30.0 °F 70% 29.56 in 10.0 mi NNW 11.5 mph - 0.00 in   Overcast
2:25 PM 39.2 °F 30.8 °F 28.4 °F 65% 29.53 in 10.0 mi NNW 15.0 mph 23.0 mph 0.00 in   Overcast
2:53 PM 42.1 °F 34.5 °F 27.0 °F 55% 29.54 in 10.0 mi NNW 15.0 mph 24.2 mph 0.00 in   Mostly Cloudy
3:53 PM 41.0 °F 33.1 °F 26.1 °F 55% 29.56 in 10.0 mi NNW 15.0 mph 23.0 mph N/A   Overcast
4:53 PM 39.9 °F 32.5 °F 26.1 °F 58% 29.58 in 10.0 mi NNW 12.7 mph 21.9 mph N/A   Overcast
5:53 PM 39.0 °F 31.4 °F 25.0 °F 57% 29.60 in 10.0 mi NNW 12.7 mph 24.2 mph N/A   Overcast
7:53 PM 36.0 °F 28.5 °F 27.0 °F 70% 29.63 in 10.0 mi NNW 10.4 mph - N/A   Overcast
8:20 PM 35.6 °F 28.6 °F 28.4 °F 75% 29.62 in 8.0 mi NNW 9.2 mph - 0.00 in Snow Light Snow
8:53 PM 35.1 °F 27.4 °F 28.9 °F 78% 29.64 in 7.0 mi North 10.4 mph - 0.00 in   Overcast
9:06 PM 33.8 °F 26.4 °F 28.4 °F 81% 29.62 in 5.0 mi NNW 9.2 mph - 0.00 in Snow Light Snow
9:53 PM 34.0 °F 28.8 °F 28.9 °F 82% 29.63 in 4.0 mi NNW 5.8 mph - 0.00 in Snow Light Snow
10:53 PM 33.1 °F 27.7 °F 28.9 °F 85% 29.63 in 3.0 mi NNW 5.8 mph - 0.00 in Snow Light Snow
11:07 PM 33.8 °F 27.7 °F 30.2 °F 87% 29.61 in 4.0 mi NNW 6.9 mph - 0.00 in Snow Light Snow
11:36 PM 33.8 °F 27.7 °F 30.2 °F 87% 29.61 in 4.0 mi NNW 6.9 mph - 0.00 in Snow Light Snow
11:53 PM 33.1 °F 26.9 °F 30.0 °F 89% 29.62 in 4.0 mi NNW 6.9 mph - 0.00 in Snow Light Snow